轨道通信卫星FM29星 (ORBCOMM FM29)

导读 | 星芒AI

ORBCOMM FM29 是一颗由 ORBCOMM 公司运营的低轨通信卫星,属于其第二代卫星通信系统(OG2)的一部分。该卫星主要用于提供全球范围内的物联网(IoT)设备数据传输服务,支持远程监控、物流追踪和资产管理等应用。FM29 于 2022 年发射,运行在近地轨道,具备高可靠性和低延迟通信能力,增强了 ORBCOMM 在全球卫星通信市场的竞争力。

基本信息
目录编号:
33062
目录名称:
ORBCOMM FM 29
国际标识:
2008-031C
轨道中心:
EARTH
卫星名称:
轨道通信卫星FM29星
卫星全名:
轨道通信卫星FM29星 (ORBCOMM FM29)
卫星状态:
在轨 (已飞行6389 天)
发射日期:
2008-06-19 UTC
国别 :
(ORB)
星等 :
--
轨道信息
数据来源 国际轨道数据 AOE轨道数据
星历时间 2025-12-15T06:06:38+0800
1天前
查看轨道信息
2025-12-10T21:00:00+0800
5天前
查看轨道信息
半长轴 7001.234km 7001.315km
偏心率 0.0005263 0.000529
轨道倾角 48.437° 48.437°
近地点辐角 86.895° 65.029°
升交点赤经 189.380° 210.274°
平近点角 52.614° 90.080°
近地点 619.414km 619.476km
远地点 626.784km 626.884km
周期 97.168分钟 97.169分钟
每日圈数 14.81975 14.819495
详细信息
固有亮度:
8
最大亮度:
6.7
平衡模式:
三轴稳定
覆盖范围:
全球
运营商:
轨道通信公司
运营商所在国:
美国
使用方式:
暂无
卫星简介
轨道通信FM(Orbcomm FM)是一系列低地球轨道通信卫星,由美国卫星通信公司 Orbcomm运营。 截至2015年12月,已有63颗此类卫星绕地球运行。该卫星已退役。
2D轨道图
3D轨道图
轨道高度分析图
轨道倾角分析图
轨道综合分析图
查看轨道综合分析图